T 2004 Jan. 14.999 TT MPC q 2.07570 (2000.0) P Q Peri. 290.249 -0.802195 -0.237233 Node 120.014 +0.177685 +0.781238 e 1.0 Incl. 140.746 -0.570010 +0.577397 >From 70 observations 2004 Apr. 16-30.
m1 = -1.8 + 5 logΔ + 50 log r